When you browse on this site, cookies collect data to enhance your experience and personalize the content and advertising you see.
Visit our Privacy Policy to learn more. By continuing to use the site, you agree to this use of cookies and data.

Hourly Weather Trypolis

Today, 14 July, Tuesday

Time Temperature Precipitation Wind Pressure Humidity
00:00 +27°C° 0 mm 3 mps 759 mmHg 59%
01:00 +26°C° 0 mm 3 mps 758 mmHg 56%
02:00 +26°C° 0 mm 3 mps 758 mmHg 56%
03:00 +26°C° 0 mm 3 mps 758 mmHg 56%
04:00 +26°C° 0 mm 3 mps 757 mmHg 57%
05:00 +27°C° 0 mm 3 mps 758 mmHg 52%
06:00 +28°C° 0 mm 2 mps 758 mmHg 47%
07:00 +29°C° 0 mm 2 mps 758 mmHg 42%
08:00 +31°C° 0 mm 2 mps 758 mmHg 38%
09:00 +34°C° 0 mm 3 mps 759 mmHg 33%
10:00 +36°C° 0 mm 3 mps 759 mmHg 28%
11:00 +36°C° 0 mm 4 mps 759 mmHg 30%
12:00 +36°C° 0 mm 5 mps 758 mmHg 31%
13:00 +36°C° 0 mm 6 mps 758 mmHg 33%
14:00 +36°C° 0 mm 6 mps 758 mmHg 33%
15:00 +36°C° 0 mm 7 mps 757 mmHg 34%
16:00 +36°C° 0 mm 7 mps 757 mmHg 34%
17:00 +34°C° 0 mm 7 mps 757 mmHg 38%
18:00 +33°C° 0 mm 7 mps 757 mmHg 42%
19:00 +32°C° 0 mm 7 mps 757 mmHg 46%
20:00 +30°C° 0 mm 6 mps 758 mmHg 48%
21:00 +29°C° 0 mm 6 mps 758 mmHg 50%
22:00 +29°C° 0 mm 5 mps 759 mmHg 51%
23:00 +28°C° 0 mm 5 mps 759 mmHg 53%

Tomorrow, 15 July, Wednesday

Time Temperature Precipitation Wind Pressure Humidity
00:00 +28°C° 0 mm 4 mps 759 mmHg 55%
01:00 +27°C° 0 mm 4 mps 759 mmHg 57%
02:00 +27°C° 0 mm 4 mps 758 mmHg 56%
03:00 +27°C° 0 mm 4 mps 758 mmHg 56%
04:00 +26°C° 0 mm 4 mps 758 mmHg 55%
05:00 +28°C° 0 mm 4 mps 758 mmHg 49%
06:00 +29°C° 0 mm 4 mps 759 mmHg 43%
07:00 +32°C° 0 mm 4 mps 759 mmHg 37%
08:00 +34°C° 0 mm 4 mps 759 mmHg 31%
09:00 +36°C° 0 mm 4 mps 760 mmHg 26%
10:00 +40°C° 0 mm 4 mps 760 mmHg 20%
11:00 +40°C° 0 mm 5 mps 760 mmHg 21%
12:00 +41°C° 0 mm 6 mps 759 mmHg 22%
13:00 +41°C° 0 mm 7 mps 759 mmHg 23%
14:00 +41°C° 0 mm 7 mps 759 mmHg 26%
15:00 +40°C° 0 mm 8 mps 759 mmHg 29%
16:00 +39°C° 0 mm 8 mps 758 mmHg 31%
17:00 +38°C° 0 mm 8 mps 758 mmHg 35%
18:00 +37°C° 0 mm 8 mps 758 mmHg 38%
19:00 +35°C° 0 mm 9 mps 758 mmHg 41%
20:00 +34°C° 0 mm 8 mps 759 mmHg 41%
21:00 +34°C° 0 mm 8 mps 759 mmHg 40%
22:00 +33°C° 0 mm 8 mps 759 mmHg 40%
23:00 +33°C° 0 mm 8 mps 759 mmHg 39%

Day after tomorrow, 16 July, Thursday

Time Temperature Precipitation Wind Pressure Humidity
00:00 +32°C° 0 mm 8 mps 759 mmHg 39%
01:00 +32°C° 0 mm 8 mps 758 mmHg 39%
02:00 +32°C° 0 mm 7 mps 758 mmHg 38%
03:00 +32°C° 0 mm 5 mps 758 mmHg 37%
04:00 +32°C° 0 mm 4 mps 757 mmHg 37%
05:00 +33°C° 0 mm 4 mps 758 mmHg 35%
06:00 +33°C° 0 mm 3 mps 758 mmHg 34%
07:00 +34°C° 0 mm 3 mps 759 mmHg 32%
08:00 +36°C° 0 mm 2 mps 759 mmHg 28%
09:00 +38°C° 0 mm 2 mps 759 mmHg 24%
10:00 +41°C° 0 mm 1 mps 758 mmHg 20%
11:00 +41°C° 0 mm 2 mps 758 mmHg 20%
12:00 +42°C° 0 mm 3 mps 758 mmHg 20%
13:00 +43°C° 0 mm 4 mps 758 mmHg 20%
14:00 +42°C° 0 mm 5 mps 757 mmHg 20%
15:00 +42°C° 0 mm 5 mps 757 mmHg 20%
16:00 +42°C° 0 mm 5 mps 756 mmHg 20%
17:00 +41°C° 0 mm 5 mps 756 mmHg 23%
18:00 +38°C° 0 mm 4 mps 757 mmHg 26%
19:00 +37°C° 0 mm 4 mps 757 mmHg 29%
20:00 +36°C° 0 mm 4 mps 757 mmHg 32%
21:00 +35°C° 0 mm 3 mps 757 mmHg 35%
22:00 +33°C° 0 mm 3 mps 758 mmHg 39%
23:00 +31°C° 0 mm 3 mps 757 mmHg 49%

17 July, Friday

Time Temperature Precipitation Wind Pressure Humidity
00:00 +30°C° 0 mm 4 mps 757 mmHg 60%
01:00 +29°C° 0 mm 4 mps 757 mmHg 71%
02:00 +28°C° 0 mm 4 mps 757 mmHg 73%
03:00 +28°C° 0 mm 3 mps 756 mmHg 76%
04:00 +27°C° 0 mm 3 mps 756 mmHg 78%
05:00 +28°C° 0 mm 3 mps 756 mmHg 73%
06:00 +29°C° 0 mm 3 mps 757 mmHg 69%
07:00 +30°C° 0 mm 3 mps 757 mmHg 65%
08:00 +31°C° 0 mm 3 mps 757 mmHg 58%
09:00 +34°C° 0 mm 3 mps 757 mmHg 51%
10:00 +35°C° 0 mm 4 mps 757 mmHg 44%
11:00 +35°C° 0 mm 5 mps 757 mmHg 46%
12:00 +35°C° 0 mm 5 mps 757 mmHg 48%
13:00 +35°C° 0 mm 6 mps 757 mmHg 50%
14:00 +34°C° 0 mm 6 mps 756 mmHg 51%
15:00 +34°C° 0 mm 7 mps 756 mmHg 53%
16:00 +33°C° 0 mm 7 mps 756 mmHg 55%
17:00 +32°C° 0 mm 7 mps 756 mmHg 60%
18:00 +30°C° 0 mm 6 mps 757 mmHg 66%
19:00 +29°C° 0 mm 6 mps 757 mmHg 71%
20:00 +29°C° 0 mm 6 mps 757 mmHg 74%
21:00 +28°C° 0 mm 6 mps 758 mmHg 77%
22:00 +28°C° 0 mm 6 mps 758 mmHg 79%
23:00 +28°C° 0 mm 5 mps 758 mmHg 80%

18 July, Saturday

Time Temperature Precipitation Wind Pressure Humidity
00:00 +27°C° 0 mm 5 mps 758 mmHg 81%
01:00 +27°C° 0 mm 4 mps 758 mmHg 82%
02:00 +27°C° 0 mm 3 mps 758 mmHg 83%
03:00 +26°C° 0 mm 3 mps 758 mmHg 84%
04:00 +26°C° 0 mm 2 mps 758 mmHg 85%
05:00 +27°C° 0 mm 3 mps 758 mmHg 81%
06:00 +27°C° 0 mm 3 mps 758 mmHg 77%
07:00 +28°C° 0 mm 4 mps 758 mmHg 73%
08:00 +29°C° 0 mm 4 mps 758 mmHg 67%
09:00 +32°C° 0 mm 4 mps 758 mmHg 60%
10:00 +33°C° 0 mm 4 mps 758 mmHg 53%
11:00 +33°C° 0 mm 4 mps 758 mmHg 52%
12:00 +33°C° 0 mm 5 mps 758 mmHg 52%
13:00 +34°C° 0 mm 6 mps 757 mmHg 51%
14:00 +33°C° 0 mm 7 mps 757 mmHg 54%
15:00 +32°C° 0 mm 7 mps 757 mmHg 56%
16:00 +31°C° 0 mm 8 mps 757 mmHg 59%
17:00 +30°C° 0 mm 7 mps 757 mmHg 63%
18:00 +29°C° 0 mm 7 mps 757 mmHg 67%
19:00 +28°C° 0 mm 6 mps 758 mmHg 72%
20:00 +28°C° 0.1 mm 5 mps 758 mmHg 72%
21:00 +28°C° 0.1 mm 5 mps 758 mmHg 72%
22:00 +28°C° 0.1 mm 4 mps 759 mmHg 73%
23:00 +27°C° 0.1 mm 3 mps 759 mmHg 75%

19 July, Sunday

Time Temperature Precipitation Wind Pressure Humidity
00:00 +26°C° 0.1 mm 2 mps 759 mmHg 78%
01:00 +26°C° 0.1 mm 1 mps 759 mmHg 81%
02:00 +25°C° 0 mm 2 mps 759 mmHg 81%
03:00 +25°C° 0 mm 2 mps 758 mmHg 82%
04:00 +25°C° 0 mm 3 mps 758 mmHg 82%
05:00 +26°C° 0 mm 3 mps 758 mmHg 78%
06:00 +27°C° 0 mm 4 mps 759 mmHg 74%
07:00 +28°C° 0 mm 4 mps 759 mmHg 69%
08:00 +28°C° 0 mm 4 mps 759 mmHg 65%
09:00 +29°C° 0 mm 4 mps 759 mmHg 61%
10:00 +30°C° 0 mm 4 mps 759 mmHg 57%
11:00 +32°C° 0 mm 4 mps 759 mmHg 55%
12:00 +32°C° 0 mm 4 mps 759 mmHg 53%
13:00 +32°C° 0 mm 4 mps 759 mmHg 51%
14:00 +32°C° 0 mm 4 mps 759 mmHg 53%
15:00 +32°C° 0 mm 4 mps 759 mmHg 54%
16:00 +32°C° 0 mm 4 mps 758 mmHg 55%
17:00 +30°C° 0 mm 5 mps 759 mmHg 60%
18:00 +29°C° 0 mm 5 mps 759 mmHg 64%
19:00 +28°C° 0 mm 5 mps 759 mmHg 69%
20:00 +28°C° 0 mm 5 mps 759 mmHg 72%
21:00 +27°C° 0 mm 4 mps 760 mmHg 75%
22:00 +27°C° 0 mm 4 mps 760 mmHg 77%
23:00 +26°C° 0 mm 4 mps 760 mmHg 78%
Show more